sat.trackr.live / text

‹ back to catalog

STARLINK-4748

NORAD 53823 · 2022-114F

PAYLOAD ACTIVE UNKNOWN

§ Identity

Operator
Country
US
Launch date
2022-09-19
Launch site
AFETR
Launch vehicle
Mass (kg)
RCS (m²)

Purposes: comms

External: N2YO · Heavens-Above · Gunter

§ Orbital elements

Epoch: 2026-05-25T01:45:01.005120Z

Period
95.44 min
Inclination
53.2133°
Eccentricity
0.0001430
Mean motion
15.08826268 rev/d
Perigee alt
538.8 km
Apogee alt
540.8 km
Semi-major
6,917.9 km
B*
2.5625e-4
RAAN
276.2059°
Arg perigee
93.1698°
Mean anomaly
266.9458°
Rev number
20,499

§ Raw data

STARLINK-47481 53823U 22114F   26145.07292830  .00003791  00000+0  25625-3 0  99922 53823  53.2133 276.2059 0001430  93.1698 266.9458 15.08826268204995

JSON: /api/v1/satellites/53823 · /tle

For live sub-satellite position, see the globe view (requires WebGL).

§ Visibility from observer

Set your observer location to see the next 7 days of passes ≥ 10°. The values pass through the URL so the page stays shareable.

No JS? Fill the form by hand. The geolocation button needs JavaScript.